Regional Weather Roundup
Issued by NWS

Home | Current Version | Previous Version | Text Only | Print | Product List | Glossary Off
Versions: 1 2 3 4 5 6 7 8 9 10 11 12 13 14 15 16 17 18 19 20 21 22 23 24 25 26 27 28 29 30 31 32 33 34 35 36 37 38 39 40 41 42 43 44 45 46 47 48 49 50

009
ASUS44 KLIX 251005
RWRLA
LOUISIANA WEATHER ROUNDUP
NATIONAL WEATHER SERVICE NEW ORLEANS LA
500 AM CDT FRI JUL 25 2014

NOTE: "FAIR" INDICATES FEW OR NO CLOUDS BELOW 12,000 FEET WITH NO
      SIGNIFICANT WEATHER AND/OR OBSTRUCTIONS TO VISIBILITY.
      SKY/WX - SKY CONDITION AND SIGNIFICANT WEATHER.
      TMP - AIR TEMPERATURE.    DP   - DEWPOINT TEMPERATURE.
      RH  - RELATIVE HUMIDITY.  PRES - PRESSURE.
      HX  - HEAT INDEX.         WCI  - WIND CHILL INDEX.

*  THESE STATIONS ARE NOT NWS OR FAA STATIONS AND ARE NOT UNDER
   NWS QUALITY CONTROL.

LAZ040-048-061>063-065-066-069-251100-
SOUTHEAST LOUISIANA

CITY           SKY/WX    TMP DP  RH WIND       PRES   REMARKS
N.O. AUDUBON     N/A     79  76  91 MISG        N/A
N.O. INTL ARPT PTCLDY    77  74  90 W5        29.99R
N.O. LAKEFRONT PTCLDY    81  75  82 W13       30.00R
N.O. DOWNTOWN* FAIR      79  72  78 CALM      30.00S
SLIDELL        CLEAR     75  72  90 CALM      29.98S
BATON ROUGE    PTCLDY    75  73  93 CALM      29.99S FOG
BOOTHVILLE     CLOUDY    81  77  88 W10       30.00S
BELLE CHASSE   CLEAR     78  74  87 W5        29.99R
BOGALUSA*        N/A     76  73  88 CALM      30.00S FOG
GALLIANO*      NOT AVBL
NEW ROADS*     FAIR      75  74  98 SW3       30.00R FOG
GONZALES*      FAIR      75  75 100 W3        29.99S
HAMMOND*       CLEAR     73  72  94 CALM      30.01R
HOUMA*         CLEAR     76  73  88 CALM      29.99F
PORT FOURCHON* PTSUNNY   82  75  78 W8        30.02S

$$

LAZ041-044-053-054-251100-
SOUTHWEST LOUISIANA

CITY           SKY/WX    TMP DP  RH WIND       PRES   REMARKS
LAKE CHARLES   CLEAR     78  76  93 CALM      29.98S FOG
LAFAYETTE      CLEAR     77  72  84 CALM      29.99F
PATTERSON      PTCLDY    75  72  88 CALM      30.03S
SALT POINT       N/A     85  76  74 VRB3      29.99S
NEW IBERIA     CLEAR     75  73  93 CALM      30.00F
CHENAULT AIRPK NOT AVBL

$$

LAZ027-028-251100-
CENTRAL LOUISIANA

CITY           SKY/WX    TMP DP  RH WIND       PRES   REMARKS
FORT POLK      CLEAR     74  72  93 CALM      30.01R
ALEXANDRIA INT CLEAR     75  73  93 CALM      29.99R
ALEXANDRIA     MOCLDY    76  73  91 CALM      30.01R

$$

LAZ001-002-251100-
NORTHWEST LOUISIANA

CITY           SKY/WX    TMP DP  RH WIND       PRES   REMARKS
SHREVEPORT     PTCLDY    74  72  93 NE3       30.02R
BARKSDALE AFB  CLEAR     73  72  98 CALM      30.03R FOG
DTN SHREVEPORT PTCLDY    74  71  91 CALM      30.03R

$$

LAZ014-016-251100-
NORTHEAST LOUISIANA

CITY           SKY/WX    TMP DP  RH WIND       PRES   REMARKS
MONROE         MOCLDY    72  69  90 CALM      30.02S
TALLULAH       CLEAR     68  66  93 NW5       30.02R

$$




USA.gov is the U.S. government's official web portal to all federal, state and local government web resources and services.